Starlink 32938

operational
NORAD ID: 63201 Int'l Des: 2025-048 Owner: SPXS Country: US Constellation: starlink
LEOCIRCULAR

Starlink 32938について

説明を読み込み中...

リアルタイム位置

3D地球を読み込み中...

次回通過

高度履歴

Altitude vs Time

uPlot chart will show altitude changes over time

軌道要素

1 63201U 25048U 25350.26844595 .00015274 00000-0 56354-3 0 9994
2 63201 42.9981 196.4592 0001577 279.6647 80.4027 15.27571796 44339
Epoch: Dec 16, 2025 • Age: 17 hours

現在のステータス

高度 482.1 km
速度 7.63 km/s
衛星直下点 13.36°N, 124.33°E
打ち上げ日 Mar 13, 2025
運用期間 0.7 years
タイプ internet

技術仕様

分類 Payload
質量 730.00 kg
乾燥質量 700.00 kg
総質量 730.00 kg
長さ 0.30 m
直径 4.10 m
スパン 29.00 m
形状 Box + pan
製造者 SPXS
バスタイプ Starlink V2M
フェーズステータス In Orbit
所有者/国 SPXS/US

大規模コンステレーション

Loading constellations...